Tracking 19149 objects as of 22-Apr-2018
HD Live streaming from Space Station
objects crossing your sky now

GLOBALSTAR M050

Track GLOBALSTAR M050 now!
10-day predictions
GLOBALSTAR M050 is classified as:


NORAD ID: 25908
Int'l Code: 1999-049B
Perigee: 1,648.2 km
Apogee: 1,662.1 km
Inclination: 52.0 °
Period: 119.3 minutes
Semi major axis: 8026 km
RCS: 2.2706 m2 (large)
Launch date: September 22, 1999
Source: Globalstar (GLOB)
Launch site: TYURATAM MISSILE AND SPACE COMPLEX (TTMTR)
aabbcc
Your satellite tracking list
Your tracking list is empty




NASA's NSSDC Master Catalog

Two Line Element Set (TLE):
1 25908U 99049B   18111.95790536 -.00000147 +00000-0 -66701-3 0  9998
2 25908 051.9981 089.4560 0008639 223.9145 169.7215 12.07378540832532
Source of the keplerian elements: AFSPC